Regional Weather Roundup
Issued by NWS Newport/Morehead, NC

Home | Current Version | Previous Version | Text Only | Print | Product List | Glossary On
Versions: 1 2 3 4 5 6 7 8 9 10 11 12 13 14 15 16 17 18 19 20 21 22 23 24 25 26 27 28 29 30 31 32 33 34 35 36 37 38 39 40 41 42 43 44 45 46 47 48 49 50
000
ASUS42 KMHX 210625
RWRMHX
WEATHER ROUNDUP FOR EASTERN NORTH CAROLINA
NATIONAL WEATHER SERVICE NEWPORT/MOREHEAD CITY NC
100 AM EST TUE NOV 21 2017

NOTE: "FAIR" INDICATES FEW OR NO CLOUDS BELOW 12,000 FEET
WITH NO SIGNIFICANT WEATHER AND/OR OBSTRUCTIONS TO VISIBILITY

NCZ015>017-031-032-045>047-102-103-210700-
NORTH COAST

CITY           SKY/WX    TMP DP  RH WIND       PRES   REMARKS
EDENTON        CLOUDY    40  37  89 CALM      30.28S
ELIZABETH CITY CLOUDY    40  37  89 S6        30.28S
KITTY HAWK     CLEAR     46  38  73 CALM      30.27S
MANTEO         CLEAR     36  35  95 CALM      30.29R

$$

NCZ045>047-081-094-103-104-210700-
CENTRAL COAST

CITY           SKY/WX    TMP DP  RH WIND       PRES   REMARKS
FRISCO         CLEAR     39  37  92 N5        30.27S

$$

NCZ095-097-098-100-101-210700-
SOUTHERN COAST

CITY           SKY/WX    TMP DP  RH WIND       PRES   REMARKS
BEAUFORT       PTCLDY    37  37 100 CALM      30.27S
CEDAR ISLAND   NOT AVBL
JACKSONVILLE   PTCLDY    35  35 100 CALM      30.26F
PINEY ISLAND   NOT AVBL
WILMINGTON     CLOUDY    37  35  92 CALM      30.26F


$$

NCZ011>013-027>030-043-044-078>080-089-090>093-098-210700-
COASTAL PLAIN

CITY           SKY/WX    TMP DP  RH WIND       PRES   REMARKS
AHOSKIE        CLOUDY    31  31  98 CALM      30.27S
CLINTON        CLOUDY    33  33  98 CALM      30.27F
ELIZABETHTOWN  NOT AVBL
GOLDSBORO      CLOUDY    34  30  85 CALM      30.24F
GREENVILLE     CLOUDY    34  34 100 CALM      30.27F
HAVELOCK       NOT AVBL
KENANSVILLE    CLOUDY    30  28  93 CALM      30.26F FOG
KINSTON        CLOUDY    32  31  96 CALM      30.27F
NEW BERN       PTCLDY    34  34 100 CALM      30.28F
RICHLANDS      PTCLDY    31  29  92 CALM      30.27F
ROCKY MOUNT    CLOUDY    32  32 100 CALM      30.26F
WASHINGTON     CLOUDY    35  33  93 CALM      30.28S
WHITEVILLE     CLEAR     36  34  92 CALM      30.24F

$$

AMZ130-135-150-152-154-156-158-170-250-252-270-ANZ085-086-088-633-658-670-210700-
MARINE OBSERVATIONS

STATION/POSITION TIME  TEMP    WIND        PRES    WAVE   SWELL
                       AIR SEA DIR/SP/G            HT/PER HT/PER
                 (UTC) (F)     (DEG/KT/KT) (MB)    (FT/S) (FT/S)
CHESAPEAKE LIGHT NOT AVBL
64 E VA BEACH    0550   54 60  220/ 10/ 14 1025.4    2/ 5   2/ 5
DUCK             0600   49 60  190/  7/  8 1024.7
2 E DUCK         0530      61                N/A     2/ 5
OREGON INLET     0600   49 54   CALM  /  1 1025.2
13E OREGON INLT  0518      62                N/A     3/ 7   2/ 7
HATTERAS CG      0600   50 58   30/  2/  3 1024.6
DIAMOND BUOY     0600   62     210/  6/ 12 1024.9
CAPE LOOKOUT     0600          340/  4/  4 1025.0
BEAUFORT LAB     0600   48 59  360/  3/  4 1024.9
30 SE NEW RVR IN 0608   62 67  160/  6/  8 1024.5
30 SE NEW RVR IN 0530      67                N/A     2/ 9
27 SE WRIGHTSVLE 0508   61 68  170/  8/ 10 1024.2
5 SE WRIGHTSVLE  0608   60 64  170/  6/  8 1024.3
225 S CAPE HAT   0550   69 76  110/ 14/ 16 1023.4    5/ 9   3/ 9
41 SE CHARLESTON 0600   69     110/ 12/ 16 1022.0

$$




USA.gov is the U.S. government's official web portal to all federal, state and local government web resources and services.